Notices

What's New in latest Release from April 7th, 2021:

- Updated Glossary, including Speed of Maximum Gust, and Total Hourly Precipitation

- Updated national and regional climate services offices contacts and prices information

- Addition of station inventory lists for 1981-2010, 1971-2000, and 1961-1990 Normals.

If you haven't already, please take our survey and provide feedback about our website: https://eccc.sondage-survey.ca/f/LanguageSelection.aspx?s=442ca660-fcf1-47c0-95a9-59707d6fd709

Hourly Data Report for November 24, 2019

SAINT JOHN A
NEW BRUNSWICK
Current Station Operator: NAVCAN

45°18'58.000" N
65°53'24.000" W
108.80 m
8104901
71609
YSJ

Download Data

Hourly Data (November 2019)
Hourly Data Report for November 24, 2019
TIME
LST
Temp Definition
°C
Dew Point Definition
°C
Rel Hum Definition
%
Precip. Amount Definition
mm

Wind Dir Definition
10's deg

Wind Spd Definition
km/h
Visibility Definition
km
Stn Press Definition
kPa
Hmdx Definition


Wind Chill Definition


Weather Definition


00:00 -2.2 -7.4 67   28 12 24.1 99.47   -6 LegendNANA
01:00 -2.6 -7.3 71   29 5 24.1 99.48   -5 LegendNANA
02:00 -2.5 -7.2 70   30 10 24.1 99.45   -6 Clear
03:00 -4.5 -7.6 79   19 3 24.1 99.43   -6 LegendNANA
04:00 -5.4 -6.9 90   36 2 24.1 99.42   -6 LegendNANA
05:00 -6.0 -7.0 93   36 3 24.1 99.45   -7 Clear
06:00 -7.0 -7.8 94   3 3 24.1 99.42   -9 LegendNANA
07:00 -6.2 -7.0 94   36 2 24.1 99.48   -7 LegendNANA
08:00 -5.3 -6.5 92   4 4 24.1 99.49   -7 Mostly Cloudy
09:00 -3.0 -4.5 90   36 3 24.1 99.40   -4 LegendNANA
10:00 -0.8 -4.2 78   6 6 24.1 99.33   -3 LegendNANA
11:00 1.2 -3.7 70   12 5 24.1 99.30     Mostly Cloudy
12:00 2.0 -4.7 61   12 4 24.1 99.28     LegendNANA
13:00 2.4 -2.7 69   11 12 24.1 99.25     LegendNANA
14:00 2.9 -1.8 72   10 16 24.1 99.13     Cloudy
15:00 2.9 -0.6 77   10 21 24.1 99.00     Rain
16:00 3.0 -0.2 80   8 21 24.1 98.82     Rain
17:00 2.1 0.5 89   7 18 16.1 98.77     Rain
18:00 2.4 1.4 93   7 22 16.1 98.58     Rain
19:00 2.7 2.0 95   8 26 9.7 98.41     Rain,Fog
20:00 3.4 2.7 95   9 34 9.7 98.23     Rain,Fog
21:00 3.6 2.9 95   8 28 9.7 98.02     Moderate Rain,Fog
22:00 4.1 3.4 95   7 37 8.1 97.78     Moderate Rain,Fog
23:00 4.9 4.1 94   8 25 8.1 97.58     Moderate Rain,Fog

Notes on Data Quality.

Legend

  • E = Estimated
  • M = Missing
  • NA = Not Available*
  • [empty] = Indicates an unobserved value
Date modified: